SCP
0 0 0 0 0 0 0 -0 0 0 0 -0 -0 0 0 0 0 0 0 -0 -1 -0 -0 -0 -0 -0 -0 -0 -0 -0 -0 -0 -0 -0 0 0 0 -0 -0 0 -0 -0 0 0 0 0 0 0 0
0 0 0 0 0 0 -0 0 -0 0 0 -0 -0 -0 0 0 0 -0 -0 -0 -1 -0 -0 -0 -0 -0 -0 -0 -0 -0 -0 -0 -0 -0 -0 -0 -0 -0 -0 0 -0 0 0 0 0 0 0 0 0
0 0 0 0 0 0 -0 0 -0 0 0 0 0 0 0 -0 -0 0 -0 -0 -0 -0 -0 -0 -0 -0 -0 -0 -0 -0 -0 -0 -0 -0 -0 -0 -0 -0 0 0 0 0 0 0 0 0 0 0 0
0 0 0 0 0 0 0 0 0 0 0 0 0 0 0 -0 0 -0 -1 -0 -0 -0 -0 -0 -0 -1 -0 -0 -0 -0 -0 -0 -0 -0 -0 -0 -0 0 0 0 0 0 0 0 0 0 0 0 0
0 0 0 0 0 0 0 0 -0 0 0 -0 0 0 0 -0 0 -1 -1 -0 -0 -0 -0 -0 -0 -0 -0 -0 -0 -0 -0 -0 -0 -0 -0 -0 0 0 0 0 0 0 0 0 0 0 0 0 0
0 0 0 0 0 0 0 0 -0 0 -0 -0 0 0 0 -0 -0 -0 -0 -0 -0 -0 -0 0 -0 -0 -0 -0 -0 -0 -0 -0 -0 -0 -0 -0 0 0 0 0 0 0 0 0 0 0 0 0 0
0 0 0 0 0 0 0 -0 0 0 0 0 -0 1 0 0 1 0 0 -0 0 0 0 0 0 0 -0 -0 -0 -0 -0 -0 -0 -0 0 0 0 0 0 0 0 0 0 0 0 0 0 0 0
0 0 0 0 0 0 -0 0 0 0 0 0 0 0 1 0 0 0 1 1 0 0 0 0 0 0 0 0 0 0 0 0 0 0 0 0 0 0 0 0 0 0 0 0 0 0 0 0 0
0 0 0 0 0 0 0 -0 0 0 0 0 0 1 1 0 1 0 1 1 0 0 0 0 0 0 0 0 0 0 0 0 0 0 0 0 0 0 0 0 0 0 0 0 0 0 0 0 0
0 0 0 0 0 0 -0 0 0 0 0 0 0 0 0 0 1 -0 0 1 0 0 0 0 0 0 0 -0 0 0 0 0 0 0 0 0 0 0 0 0 0 0 0 0 0 0 0 0 0
0 0 0 0 0 0 0 0 0 0 0 0 -0 0 0 0 0 0 0 0 1 0 0 0 0 0 0 0 0 0 0 0 0 0 0 0 0 0 0 0 0 0 0 0 0 0 0 0 0
0 0 0 0 0 0 0 0 0 -0 0 0 0 -0 -0 -0 0 0 -0 0 0 1 0 0 0 0 -0 0 0 0 0 0 0 0 0 0 0 0 0 0 0 0 0 0 0 0 0 0 0
0 0 0 0 0 0 0 0 0 -0 0 0 0 0 -0 0 -0 0 0 0 0 1 1 0 0 -0 0 0 0 0 0 0 0 0 0 0 0 0 0 0 0 0 0 0 0 0 0 0 0
0 0 0 0 0 0 0 0 0 -0 0 0 0 0 0 0 0 0 0 0 0 0 0 0 1 -0 1 0 0 0 0 0 0 0 0 0 0 0 0 0 0 0 0 0 0 0 0 0 0
0 0 0 0 0 0 0 0 0 0 0 0 0 0 0 0 0 0 0 0 0 0 0 0 0 0 -0 1 1 1 0 0 0 0 0 0 0 0 1 1 1 0 0 0 0 0 0 1 1
0 0 0 0 0 0 0 0 0 0 0 0 0 0 0 0 0 0 0 0 0 0 0 0 -0 -0 -0 1 1 2 2 2 1 2 1 0 1 1 2 2 2 1 0 0 0 0 0 0 0
0 0 0 0 0 0 0 0 0 0 0 0 0 0 0 0 0 0 0 0 0 0 -0 0 0 0 -0 0 2 2 3 2 2 2 3 2 2 2 3 3 2 1 1 1 1 0 0 1 1
0 0 0 0 0 0 0 0 0 0 0 0 0 -0 0 0 0 0 0 0 0 0 0 -0 -0 -0 -0 -0 3 3 2 3 2 2 3 4 4 4 3 3 2 2 1 0 0 1 1 1 1
0 0 0 0 0 0 0 0 0 0 0 0 0 0 0 0 0 0 0 -0 0 0 0 -0 -0 -0 -0 5 6 5 4 3 2 2 1 2 4 5 5 3 2 1 1 0 1 1 0 0 1
-0 0 0 0 0 0 0 0 0 0 0 0 0 0 0 0 0 0 0 0 0 0 0 0 0 0 2 5 6 5 3 2 3 2 2 3 4 4 1 0 2 1 2 0 1 1 1 1 1
0 0 0 0 0 0 0 0 0 0 0 0 0 0 0 0 0 0 0 0 -0 0 0 0 0 0 0 1 5 4 4 3 3 2 2 5 2 1 0 0 2 1 1 0 0 0 1 1 1
0 0 0 -0 0 0 0 0 0 0 0 0 0 0 0 0 0 0 0 0 -0 0 0 1 1 1 1 2 2 3 4 2 1 2 2 3 2 0 0 0 1 1 1 0 0 -0 1 2 1
0 0 0 -0 0 0 0 0 0 0 0 0 0 0 0 0 0 0 0 0 0 1 1 1 2 2 2 2 3 3 3 2 3 2 2 2 3 0 0 -0 1 2 1 1 1 1 2 2 1
0 0 0 0 0 0 0 0 0 0 0 -0 -0 -0 -0 0 0 0 0 0 0 0 0 0 0 0 0 0 0 0 0 1 2 0 0 1 2 1 0 1 2 2 2 1 1 1 1 1 1
0 0 0 0 0 0 0 0 0 0 -0 -0 0 0 0 0 0 0 0 0 0 0 0 0 0 0 0 0 0 0 0 0 0 0 0 0 0 0 1 1 0 1 1 0 0 1 1 1 1
0 0 0 0 0 0 0 0 0 0 -0 -0 0 0 0 0 0 0 0 0 0 0 0 0 0 0 0 0 0 0 0 0 0 0 0 0 0 0 0 0 0 0 0 0 0 0 0 0 0
0 0 0 0 0 0 0 0 0 0 0 0 0 0 0 0 0 0 0 0 0 0 0 0 0 0 0 0 0 0 0 0 0 0 0 0 0 0 0 0 0 0 0 0 0 0 0 0 0
0 0 0 0 -0 -0 -0 0 0 0 0 0 0 0 0 0 0 0 0 0 0 0 0 0 0 0 0 0 0 0 0 0 0 0 0 0 0 0 0 0 0 0 0 0 0 1 1 1 1
0 0 0 0 0 -0 0 0 0 0 0 0 0 0 0 0 0 0 0 0 0 0 0 0 0 0 0 0 0 0 0 0 0 0 0 0 0 0 0 0 0 0 0 0 0 0 0 1 1
0 0 0 -0 0 0 0 0 0 0 0 0 0 0 0 0 0 0 0 0 0 0 0 0 0 0 0 0 0 0 0 0 0 0 0 0 0 0 0 0 0 0 0 0 0 0 0 0 0
Wind_Speed_500mb
16 14 18 32 5 3 7 17 14 3 11 38 68 49 24 24 12 3 31 43 34 53 52 51 48 45 40 39 39 38 35 32 30 27 26 28 30 33 32 30 26 23 20 18 17 16 15 14 14
15 14 15 10 3 7 12 23 20 17 25 76 70 65 40 14 30 28 44 43 33 52 55 53 48 44 42 40 40 41 38 34 30 26 23 24 27 28 27 25 23 18 16 14 13 13 12 11 11
15 10 8 7 7 15 11 10 34 19 15 19 17 44 32 42 54 52 25 41 36 53 54 53 51 46 43 41 41 41 39 36 31 26 23 21 23 26 25 23 19 14 12 11 10 10 8 8 8
9 8 13 1 18 31 31 36 37 8 20 5 47 13 16 63 49 46 49 43 43 56 58 56 52 48 46 44 43 42 40 36 32 26 22 20 22 25 23 21 17 13 10 8 7 6 5 4 5
15 14 5 8 20 27 30 45 20 6 24 37 33 17 23 57 25 51 60 51 48 58 60 56 50 47 46 47 46 43 40 35 32 27 22 21 22 24 24 21 17 13 10 7 5 3 2 1 2
11 8 4 12 26 27 30 32 12 17 36 36 18 35 20 41 74 62 51 42 55 64 62 56 52 47 46 47 47 46 42 37 32 28 23 22 23 24 25 21 18 15 11 9 5 3 2 2 3
21 4 12 17 26 21 25 24 17 11 27 17 18 11 36 56 57 60 45 45 42 52 59 59 57 51 47 46 46 44 41 37 32 27 24 24 24 25 25 23 20 16 13 11 9 6 4 4 4
42 7 19 19 27 28 11 33 56 11 23 23 29 14 20 50 59 43 55 55 43 40 54 57 57 53 50 46 44 43 41 37 33 28 25 24 26 27 27 25 21 18 16 14 12 10 9 8 7
37 3 18 26 24 33 12 11 26 53 53 9 26 60 59 51 51 61 60 54 47 37 56 56 54 51 46 44 43 41 39 36 33 31 29 30 30 28 27 24 22 20 18 17 16 15 13 13 12
14 7 15 19 25 13 10 26 15 32 60 15 42 52 57 67 34 27 41 46 37 34 52 52 51 47 44 43 42 41 38 36 33 32 31 30 30 28 24 22 22 20 20 21 20 20 20 18 15
18 16 21 37 25 24 14 12 16 22 20 53 14 37 44 39 48 72 24 36 48 37 36 51 49 45 42 44 40 37 35 32 31 31 30 31 32 30 28 21 26 21 19 22 24 24 24 20 18
21 32 49 49 30 21 9 11 19 12 23 46 55 16 31 36 20 49 39 51 42 62 49 40 42 41 40 35 30 28 31 32 31 30 32 34 34 32 27 20 16 17 9 11 19 22 25 18 15
31 26 53 46 31 6 10 16 7 39 30 38 52 57 11 28 37 35 49 25 35 56 56 43 33 26 33 31 23 15 21 29 18 26 29 32 35 35 28 25 26 16 17 20 15 12 15 17 19
24 42 45 49 37 21 12 5 13 22 26 37 49 58 48 35 6 31 52 25 21 55 51 61 44 20 36 27 36 24 19 12 15 18 18 16 19 31 33 32 34 35 29 21 25 31 23 23 22
52 27 31 45 27 10 18 7 13 49 41 44 49 57 55 34 36 28 37 45 54 15 13 70 11 22 37 49 36 37 24 20 27 30 28 27 25 21 29 34 34 31 41 35 29 22 15 17 22
24 19 28 39 18 9 18 16 12 39 23 31 42 48 49 44 52 35 25 23 18 31 20 16 27 34 43 50 55 51 46 41 33 37 38 36 37 35 31 36 41 38 35 36 43 42 43 45 46
21 29 32 17 11 2 15 8 20 48 41 39 40 43 56 56 45 41 8 14 23 13 23 42 45 36 32 64 43 55 54 46 46 50 42 49 45 45 44 41 47 50 43 40 40 36 34 28 26
23 34 22 20 8 13 14 8 11 38 36 39 39 37 40 50 32 25 33 36 25 12 26 30 29 28 43 68 39 33 34 43 44 49 44 49 48 53 47 45 41 53 51 48 36 38 33 37 36
26 23 26 10 20 13 15 12 25 38 39 44 36 36 45 41 33 11 18 18 24 15 22 19 18 15 35 56 43 40 38 33 34 34 46 48 49 51 50 49 54 36 48 54 34 43 47 56 52
35 22 14 17 30 16 33 29 24 28 21 39 40 42 55 33 46 12 10 17 20 22 8 16 24 25 21 34 38 39 35 31 30 31 37 38 47 50 49 38 54 41 54 41 44 45 52 44 41
36 26 20 26 27 22 14 28 21 16 33 40 45 56 45 31 39 15 8 17 25 15 13 8 12 24 35 39 34 41 39 33 36 43 52 51 53 53 54 47 54 53 58 65 55 60 61 63 56
32 28 33 39 21 14 27 10 16 24 19 20 42 49 43 31 9 21 6 6 11 11 7 11 17 21 17 22 42 31 37 47 47 48 44 37 53 51 40 37 59 46 57 53 54 54 64 57 53
35 26 39 50 13 28 23 8 15 22 15 23 28 54 50 47 28 14 28 26 12 4 15 14 8 14 15 15 24 37 43 29 30 32 36 36 30 49 48 45 53 44 49 51 43 46 50 56 53
36 16 12 13 16 10 20 21 12 18 34 29 18 39 72 37 41 36 30 23 21 11 12 11 10 5 6 14 16 25 35 32 31 39 34 18 7 12 33 42 43 46 48 49 52 48 42 49 50
17 13 9 10 1 9 33 12 19 39 35 40 22 26 56 53 44 40 36 24 15 13 15 15 14 12 6 3 0 3 8 15 21 26 30 33 31 29 27 34 36 43 44 50 60 48 53 38 42
16 20 14 12 7 10 13 26 25 25 65 61 54 55 47 48 44 40 34 24 20 18 13 8 9 12 11 12 8 3 5 9 10 12 16 19 15 18 9 31 19 21 22 26 30 35 38 42 45
14 10 27 8 9 4 7 17 16 10 37 42 51 58 50 48 34 36 25 20 23 17 11 2 8 9 10 10 9 6 8 10 12 12 20 23 23 23 21 19 18 22 26 29 35 43 46 54 55
10 14 9 4 7 4 5 15 4 17 30 33 26 42 36 36 29 39 39 32 24 14 10 14 11 14 17 17 19 21 20 24 30 34 34 34 37 40 41 39 40 40 39 42 50 55 55 62 62
10 3 5 7 12 9 1 10 11 14 7 28 23 53 51 48 42 47 49 39 28 24 17 9 2 3 14 21 20 24 33 38 41 40 40 40 42 45 48 50 51 50 47 44 48 53 60 66 70
9 18 14 9 7 8 9 9 9 13 21 24 44 52 41 28 31 24 36 30 30 24 16 13 10 10 5 13 18 23 30 38 42 46 52 54 55 56 57 57 60 63 63 63 62 60 60 62 65
Wind_Direction_500mb
272 260 316 306 13 141 257 263 208 275 337 67 92 124 100 109 109 191 165 175 159 159 160 163 163 161 158 154 151 151 150 145 136 123 116 122 131 134 137 135 130 124 116 107 104 105 103 102 103
271 272 304 263 145 293 269 246 275 195 156 104 99 112 108 120 117 148 156 167 170 160 159 161 163 163 162 159 156 156 155 151 145 133 125 125 139 145 140 137 134 128 117 110 111 111 106 97 95
266 284 302 161 195 240 255 325 315 349 91 163 104 104 124 142 146 164 223 170 178 163 160 162 163 164 162 160 158 158 158 156 154 146 138 136 146 154 152 147 142 136 124 120 119 114 104 92 84
265 243 250 104 258 258 244 268 280 32 294 141 140 101 134 147 158 180 187 180 178 164 163 166 163 163 162 161 160 160 162 160 159 155 150 148 153 162 159 156 155 148 141 135 128 120 103 86 80
284 273 232 234 255 266 272 277 292 11 280 316 129 178 172 160 176 172 179 184 185 165 166 164 162 164 164 162 162 162 164 166 164 163 162 159 162 169 169 167 165 164 164 164 156 141 124 36 23
265 207 343 236 259 270 272 272 15 319 287 307 96 134 150 161 160 170 178 184 182 164 166 164 165 170 167 165 165 165 167 171 171 171 171 170 169 175 178 178 179 180 184 193 197 207 235 298 328
231 253 232 256 266 277 266 313 165 275 285 313 108 102 131 140 151 165 170 172 162 168 168 169 168 171 170 169 168 169 168 171 175 178 181 180 175 179 184 188 191 193 201 213 223 238 262 282 302
245 180 259 251 259 271 312 333 14 285 270 330 18 153 115 130 148 155 168 172 176 177 178 174 171 172 171 171 172 173 174 175 178 182 189 187 184 187 190 196 199 205 214 226 236 248 263 281 289
260 265 239 246 252 264 335 334 25 308 344 334 62 126 134 135 146 151 170 173 181 197 188 179 176 175 173 174 175 177 179 181 184 189 193 193 192 193 198 203 209 217 228 236 245 252 261 272 283
195 160 241 254 263 283 176 72 27 344 323 346 85 112 143 143 128 162 154 178 200 182 189 183 180 176 177 181 183 182 184 187 192 196 200 199 198 199 205 217 225 231 239 248 254 260 264 272 280
252 230 251 258 343 12 264 72 11 353 343 357 86 127 150 180 175 172 197 225 213 209 197 186 183 180 182 188 187 189 191 196 200 205 206 206 207 205 209 213 226 235 254 260 264 265 269 280 282
248 234 243 260 291 334 5 74 352 354 313 331 346 136 138 161 194 220 252 306 266 205 201 180 171 179 184 174 185 199 205 204 209 212 212 213 214 218 214 231 265 251 253 307 279 272 272 257 282
229 242 249 252 256 156 5 355 16 305 321 330 348 356 127 170 172 224 224 300 302 181 180 182 167 160 176 198 210 225 217 214 205 229 225 225 223 217 214 227 249 258 258 269 298 303 314 293 276
237 236 254 254 225 199 154 260 10 287 317 326 334 330 341 355 209 185 189 202 32 136 162 167 176 153 184 210 219 227 243 227 229 242 245 237 239 231 211 215 243 254 255 252 266 273 283 287 283
227 239 245 259 230 181 142 267 245 274 291 297 308 317 319 323 344 243 194 204 232 332 26 139 325 212 203 210 215 222 223 239 249 257 268 267 255 246 232 221 232 238 243 253 261 275 258 260 260
236 242 238 244 154 159 150 242 230 266 296 304 293 293 302 316 332 309 209 254 225 188 221 254 183 218 224 221 215 212 210 210 231 237 244 256 259 251 250 240 228 238 239 234 231 250 251 256 267
237 227 226 236 223 186 143 157 262 262 287 275 280 270 275 289 318 354 281 199 189 205 177 219 215 172 227 234 225 231 230 224 217 225 234 242 254 256 245 258 248 227 235 235 239 241 251 256 263
220 216 224 203 229 216 182 184 254 262 284 287 262 250 264 267 305 10 60 92 103 197 211 195 160 173 207 223 241 241 234 231 230 232 229 241 247 254 252 257 260 237 236 236 230 242 249 246 249
234 210 219 189 231 221 154 188 233 265 269 260 252 245 248 278 266 11 343 37 77 90 99 154 202 199 201 223 232 241 251 259 257 251 238 240 250 242 241 255 248 240 244 240 265 246 255 248 254
238 238 234 212 227 207 199 221 234 228 240 240 232 241 244 265 249 247 18 358 16 37 5 208 217 223 197 217 235 250 254 268 272 269 254 244 238 243 245 261 259 244 234 241 238 233 245 247 239
234 214 216 229 207 182 172 208 212 237 236 245 251 236 235 253 251 221 152 346 352 25 37 306 265 253 239 233 223 228 238 246 243 250 255 253 249 246 252 268 270 243 234 255 236 234 245 252 253
233 217 215 243 247 178 195 238 214 209 211 230 251 235 237 227 253 175 152 241 357 354 308 299 296 262 282 235 227 227 236 246 256 263 262 267 259 253 247 281 269 243 242 243 230 233 240 244 252
236 246 203 229 222 186 190 132 239 184 206 225 229 230 231 238 169 153 108 105 84 328 305 320 237 210 215 220 212 228 238 241 238 251 262 275 260 251 268 234 242 250 242 242 242 240 243 256 256
218 210 2 271 182 189 229 185 251 182 197 209 203 219 223 197 148 135 126 124 98 63 7 17 46 94 228 227 221 232 244 244 251 257 272 270 188 251 247 240 251 249 251 248 243 245 249 246 246
225 85 15 336 319 185 219 199 224 194 196 199 156 129 144 129 134 133 131 138 123 95 80 66 68 69 70 91 163 341 299 282 269 274 278 277 272 260 255 266 261 257 257 268 262 254 251 257 260
214 148 138 242 203 244 233 240 250 218 194 185 164 151 135 138 128 140 145 146 143 132 113 78 34 52 47 57 62 3 33 47 34 12 346 352 358 22 351 258 256 264 288 287 272 251 253 263 269
222 176 176 107 358 21 330 334 333 158 154 151 150 158 153 155 158 154 163 176 166 166 159 77 21 12 23 20 20 23 334 316 315 317 314 312 308 302 296 309 301 273 255 260 270 272 274 274 272
141 194 170 152 162 282 319 287 278 120 139 146 139 151 162 160 161 176 169 157 161 161 155 138 73 21 351 335 329 322 309 310 308 302 296 291 292 298 297 295 291 279 267 270 273 273 270 273 272
150 5 44 139 148 132 98 270 291 8 182 134 124 135 133 149 165 163 162 158 156 149 143 125 26 341 348 334 350 345 338 329 321 315 312 308 304 297 294 292 295 292 288 280 273 268 267 269 272
214 173 170 125 275 109 87 258 220 48 349 148 136 137 140 137 115 127 142 134 140 128 104 54 48 27 359 334 332 330 328 322 317 313 312 312 309 304 299 295 289 286 285 285 282 279 273 271 275
Wind_Speed_850mb
16 14 18 32 5 3 7 17 14 3 11 38 68 49 24 24 12 3 31 43 34 53 52 51 48 45 40 39 39 38 35 32 30 27 26 28 30 33 32 30 26 23 20 18 17 16 15 14 14
15 14 15 10 3 7 12 23 20 17 25 76 70 65 40 14 30 28 44 43 33 52 55 53 48 44 42 40 40 41 38 34 30 26 23 24 27 28 27 25 23 18 16 14 13 13 12 11 11
15 10 8 7 7 15 11 10 34 19 15 19 17 44 32 42 54 52 25 41 36 53 54 53 51 46 43 41 41 41 39 36 31 26 23 21 23 26 25 23 19 14 12 11 10 10 8 8 8
9 8 13 1 18 31 31 36 37 8 20 5 47 13 16 63 49 46 49 43 43 56 58 56 52 48 46 44 43 42 40 36 32 26 22 20 22 25 23 21 17 13 10 8 7 6 5 4 5
15 14 5 8 20 27 30 45 20 6 24 37 33 17 23 57 25 51 60 51 48 58 60 56 50 47 46 47 46 43 40 35 32 27 22 21 22 24 24 21 17 13 10 7 5 3 2 1 2
11 8 4 12 26 27 30 32 12 17 36 36 18 35 20 41 74 62 51 42 55 64 62 56 52 47 46 47 47 46 42 37 32 28 23 22 23 24 25 21 18 15 11 9 5 3 2 2 3
21 4 12 17 26 21 25 24 17 11 27 17 18 11 36 56 57 60 45 45 42 52 59 59 57 51 47 46 46 44 41 37 32 27 24 24 24 25 25 23 20 16 13 11 9 6 4 4 4
42 7 19 19 27 28 11 33 56 11 23 23 29 14 20 50 59 43 55 55 43 40 54 57 57 53 50 46 44 43 41 37 33 28 25 24 26 27 27 25 21 18 16 14 12 10 9 8 7
37 3 18 26 24 33 12 11 26 53 53 9 26 60 59 51 51 61 60 54 47 37 56 56 54 51 46 44 43 41 39 36 33 31 29 30 30 28 27 24 22 20 18 17 16 15 13 13 12
14 7 15 19 25 13 10 26 15 32 60 15 42 52 57 67 34 27 41 46 37 34 52 52 51 47 44 43 42 41 38 36 33 32 31 30 30 28 24 22 22 20 20 21 20 20 20 18 15
18 16 21 37 25 24 14 12 16 22 20 53 14 37 44 39 48 72 24 36 48 37 36 51 49 45 42 44 40 37 35 32 31 31 30 31 32 30 28 21 26 21 19 22 24 24 24 20 18
21 32 49 49 30 21 9 11 19 12 23 46 55 16 31 36 20 49 39 51 42 62 49 40 42 41 40 35 30 28 31 32 31 30 32 34 34 32 27 20 16 17 9 11 19 22 25 18 15
31 26 53 46 31 6 10 16 7 39 30 38 52 57 11 28 37 35 49 25 35 56 56 43 33 26 33 31 23 15 21 29 18 26 29 32 35 35 28 25 26 16 17 20 15 12 15 17 19
24 42 45 49 37 21 12 5 13 22 26 37 49 58 48 35 6 31 52 25 21 55 51 61 44 20 36 27 36 24 19 12 15 18 18 16 19 31 33 32 34 35 29 21 25 31 23 23 22
52 27 31 45 27 10 18 7 13 49 41 44 49 57 55 34 36 28 37 45 54 15 13 70 11 22 37 49 36 37 24 20 27 30 28 27 25 21 29 34 34 31 41 35 29 22 15 17 22
24 19 28 39 18 9 18 16 12 39 23 31 42 48 49 44 52 35 25 23 18 31 20 16 27 34 43 50 55 51 46 41 33 37 38 36 37 35 31 36 41 38 35 36 43 42 43 45 46
21 29 32 17 11 2 15 8 20 48 41 39 40 43 56 56 45 41 8 14 23 13 23 42 45 36 32 64 43 55 54 46 46 50 42 49 45 45 44 41 47 50 43 40 40 36 34 28 26
23 34 22 20 8 13 14 8 11 38 36 39 39 37 40 50 32 25 33 36 25 12 26 30 29 28 43 68 39 33 34 43 44 49 44 49 48 53 47 45 41 53 51 48 36 38 33 37 36
26 23 26 10 20 13 15 12 25 38 39 44 36 36 45 41 33 11 18 18 24 15 22 19 18 15 35 56 43 40 38 33 34 34 46 48 49 51 50 49 54 36 48 54 34 43 47 56 52
35 22 14 17 30 16 33 29 24 28 21 39 40 42 55 33 46 12 10 17 20 22 8 16 24 25 21 34 38 39 35 31 30 31 37 38 47 50 49 38 54 41 54 41 44 45 52 44 41
36 26 20 26 27 22 14 28 21 16 33 40 45 56 45 31 39 15 8 17 25 15 13 8 12 24 35 39 34 41 39 33 36 43 52 51 53 53 54 47 54 53 58 65 55 60 61 63 56
32 28 33 39 21 14 27 10 16 24 19 20 42 49 43 31 9 21 6 6 11 11 7 11 17 21 17 22 42 31 37 47 47 48 44 37 53 51 40 37 59 46 57 53 54 54 64 57 53
35 26 39 50 13 28 23 8 15 22 15 23 28 54 50 47 28 14 28 26 12 4 15 14 8 14 15 15 24 37 43 29 30 32 36 36 30 49 48 45 53 44 49 51 43 46 50 56 53
36 16 12 13 16 10 20 21 12 18 34 29 18 39 72 37 41 36 30 23 21 11 12 11 10 5 6 14 16 25 35 32 31 39 34 18 7 12 33 42 43 46 48 49 52 48 42 49 50
17 13 9 10 1 9 33 12 19 39 35 40 22 26 56 53 44 40 36 24 15 13 15 15 14 12 6 3 0 3 8 15 21 26 30 33 31 29 27 34 36 43 44 50 60 48 53 38 42
16 20 14 12 7 10 13 26 25 25 65 61 54 55 47 48 44 40 34 24 20 18 13 8 9 12 11 12 8 3 5 9 10 12 16 19 15 18 9 31 19 21 22 26 30 35 38 42 45
14 10 27 8 9 4 7 17 16 10 37 42 51 58 50 48 34 36 25 20 23 17 11 2 8 9 10 10 9 6 8 10 12 12 20 23 23 23 21 19 18 22 26 29 35 43 46 54 55
10 14 9 4 7 4 5 15 4 17 30 33 26 42 36 36 29 39 39 32 24 14 10 14 11 14 17 17 19 21 20 24 30 34 34 34 37 40 41 39 40 40 39 42 50 55 55 62 62
10 3 5 7 12 9 1 10 11 14 7 28 23 53 51 48 42 47 49 39 28 24 17 9 2 3 14 21 20 24 33 38 41 40 40 40 42 45 48 50 51 50 47 44 48 53 60 66 70
9 18 14 9 7 8 9 9 9 13 21 24 44 52 41 28 31 24 36 30 30 24 16 13 10 10 5 13 18 23 30 38 42 46 52 54 55 56 57 57 60 63 63 63 62 60 60 62 65
Wind_Direction_850mb
272 260 316 306 13 141 257 263 208 275 337 67 92 124 100 109 109 191 165 175 159 159 160 163 163 161 158 154 151 151 150 145 136 123 116 122 131 134 137 135 130 124 116 107 104 105 103 102 103
271 272 304 263 145 293 269 246 275 195 156 104 99 112 108 120 117 148 156 167 170 160 159 161 163 163 162 159 156 156 155 151 145 133 125 125 139 145 140 137 134 128 117 110 111 111 106 97 95
266 284 302 161 195 240 255 325 315 349 91 163 104 104 124 142 146 164 223 170 178 163 160 162 163 164 162 160 158 158 158 156 154 146 138 136 146 154 152 147 142 136 124 120 119 114 104 92 84
265 243 250 104 258 258 244 268 280 32 294 141 140 101 134 147 158 180 187 180 178 164 163 166 163 163 162 161 160 160 162 160 159 155 150 148 153 162 159 156 155 148 141 135 128 120 103 86 80
284 273 232 234 255 266 272 277 292 11 280 316 129 178 172 160 176 172 179 184 185 165 166 164 162 164 164 162 162 162 164 166 164 163 162 159 162 169 169 167 165 164 164 164 156 141 124 36 23
265 207 343 236 259 270 272 272 15 319 287 307 96 134 150 161 160 170 178 184 182 164 166 164 165 170 167 165 165 165 167 171 171 171 171 170 169 175 178 178 179 180 184 193 197 207 235 298 328
231 253 232 256 266 277 266 313 165 275 285 313 108 102 131 140 151 165 170 172 162 168 168 169 168 171 170 169 168 169 168 171 175 178 181 180 175 179 184 188 191 193 201 213 223 238 262 282 302
245 180 259 251 259 271 312 333 14 285 270 330 18 153 115 130 148 155 168 172 176 177 178 174 171 172 171 171 172 173 174 175 178 182 189 187 184 187 190 196 199 205 214 226 236 248 263 281 289
260 265 239 246 252 264 335 334 25 308 344 334 62 126 134 135 146 151 170 173 181 197 188 179 176 175 173 174 175 177 179 181 184 189 193 193 192 193 198 203 209 217 228 236 245 252 261 272 283
195 160 241 254 263 283 176 72 27 344 323 346 85 112 143 143 128 162 154 178 200 182 189 183 180 176 177 181 183 182 184 187 192 196 200 199 198 199 205 217 225 231 239 248 254 260 264 272 280
252 230 251 258 343 12 264 72 11 353 343 357 86 127 150 180 175 172 197 225 213 209 197 186 183 180 182 188 187 189 191 196 200 205 206 206 207 205 209 213 226 235 254 260 264 265 269 280 282
248 234 243 260 291 334 5 74 352 354 313 331 346 136 138 161 194 220 252 306 266 205 201 180 171 179 184 174 185 199 205 204 209 212 212 213 214 218 214 231 265 251 253 307 279 272 272 257 282
229 242 249 252 256 156 5 355 16 305 321 330 348 356 127 170 172 224 224 300 302 181 180 182 167 160 176 198 210 225 217 214 205 229 225 225 223 217 214 227 249 258 258 269 298 303 314 293 276
237 236 254 254 225 199 154 260 10 287 317 326 334 330 341 355 209 185 189 202 32 136 162 167 176 153 184 210 219 227 243 227 229 242 245 237 239 231 211 215 243 254 255 252 266 273 283 287 283
227 239 245 259 230 181 142 267 245 274 291 297 308 317 319 323 344 243 194 204 232 332 26 139 325 212 203 210 215 222 223 239 249 257 268 267 255 246 232 221 232 238 243 253 261 275 258 260 260
236 242 238 244 154 159 150 242 230 266 296 304 293 293 302 316 332 309 209 254 225 188 221 254 183 218 224 221 215 212 210 210 231 237 244 256 259 251 250 240 228 238 239 234 231 250 251 256 267
237 227 226 236 223 186 143 157 262 262 287 275 280 270 275 289 318 354 281 199 189 205 177 219 215 172 227 234 225 231 230 224 217 225 234 242 254 256 245 258 248 227 235 235 239 241 251 256 263
220 216 224 203 229 216 182 184 254 262 284 287 262 250 264 267 305 10 60 92 103 197 211 195 160 173 207 223 241 241 234 231 230 232 229 241 247 254 252 257 260 237 236 236 230 242 249 246 249
234 210 219 189 231 221 154 188 233 265 269 260 252 245 248 278 266 11 343 37 77 90 99 154 202 199 201 223 232 241 251 259 257 251 238 240 250 242 241 255 248 240 244 240 265 246 255 248 254
238 238 234 212 227 207 199 221 234 228 240 240 232 241 244 265 249 247 18 358 16 37 5 208 217 223 197 217 235 250 254 268 272 269 254 244 238 243 245 261 259 244 234 241 238 233 245 247 239
234 214 216 229 207 182 172 208 212 237 236 245 251 236 235 253 251 221 152 346 352 25 37 306 265 253 239 233 223 228 238 246 243 250 255 253 249 246 252 268 270 243 234 255 236 234 245 252 253
233 217 215 243 247 178 195 238 214 209 211 230 251 235 237 227 253 175 152 241 357 354 308 299 296 262 282 235 227 227 236 246 256 263 262 267 259 253 247 281 269 243 242 243 230 233 240 244 252
236 246 203 229 222 186 190 132 239 184 206 225 229 230 231 238 169 153 108 105 84 328 305 320 237 210 215 220 212 228 238 241 238 251 262 275 260 251 268 234 242 250 242 242 242 240 243 256 256
218 210 2 271 182 189 229 185 251 182 197 209 203 219 223 197 148 135 126 124 98 63 7 17 46 94 228 227 221 232 244 244 251 257 272 270 188 251 247 240 251 249 251 248 243 245 249 246 246
225 85 15 336 319 185 219 199 224 194 196 199 156 129 144 129 134 133 131 138 123 95 80 66 68 69 70 91 163 341 299 282 269 274 278 277 272 260 255 266 261 257 257 268 262 254 251 257 260
214 148 138 242 203 244 233 240 250 218 194 185 164 151 135 138 128 140 145 146 143 132 113 78 34 52 47 57 62 3 33 47 34 12 346 352 358 22 351 258 256 264 288 287 272 251 253 263 269
222 176 176 107 358 21 330 334 333 158 154 151 150 158 153 155 158 154 163 176 166 166 159 77 21 12 23 20 20 23 334 316 315 317 314 312 308 302 296 309 301 273 255 260 270 272 274 274 272
141 194 170 152 162 282 319 287 278 120 139 146 139 151 162 160 161 176 169 157 161 161 155 138 73 21 351 335 329 322 309 310 308 302 296 291 292 298 297 295 291 279 267 270 273 273 270 273 272
150 5 44 139 148 132 98 270 291 8 182 134 124 135 133 149 165 163 162 158 156 149 143 125 26 341 348 334 350 345 338 329 321 315 312 308 304 297 294 292 295 292 288 280 273 268 267 269 272
214 173 170 125 275 109 87 258 220 48 349 148 136 137 140 137 115 127 142 134 140 128 104 54 48 27 359 334 332 330 328 322 317 313 312 312 309 304 299 295 289 286 285 285 282 279 273 271 275